TimeEDT,TemperatureF,Dew PointF,Humidity,Sea Level PressureIn,VisibilityMPH,Wind Direction,Wind SpeedMPH,Gust SpeedMPH,PrecipitationIn,Events,Conditions,WindDirDegrees,DateUTC
12:51 AM,73.0,71.1,93,30.01,7.0,Calm,Calm,-,N/A,,Overcast,0,2013-08-01 04:51:00
1:05 AM,73.4,71.6,94,30.02,7.0,WSW,3.5,-,N/A,,Overcast,240,2013-08-01 05:05:00
1:51 AM,73.0,71.1,93,29.98,7.0,SW,5.8,-,N/A,,Overcast,220,2013-08-01 05:51:00
2:22 AM,71.6,71.6,100,29.99,7.0,Calm,Calm,-,N/A,,Mostly Cloudy,0,2013-08-01 06:22:00
2:38 AM,71.6,71.6,100,30.00,6.0,Calm,Calm,-,N/A,,Overcast,0,2013-08-01 06:38:00
2:51 AM,72.0,71.1,97,29.98,5.0,Calm,Calm,-,0.00,Rain,Light Rain,0,2013-08-01 06:51:00
3:51 AM,72.0,72.0,100,29.98,5.0,Calm,Calm,-,0.02,Rain,Light Rain,0,2013-08-01 07:51:00
4:16 AM,71.6,71.6,100,29.99,2.0,SW,5.8,-,0.04,Rain,Heavy Rain,220,2013-08-01 08:16:00
4:27 AM,71.6,71.6,100,29.98,5.0,Variable,3.5,-,0.05,Rain,Light Rain,0,2013-08-01 08:27:00
4:51 AM,72.0,71.1,97,29.96,4.0,SSW,3.5,-,0.06,Rain,Light Rain,210,2013-08-01 08:51:00
4:57 AM,71.6,71.6,100,29.97,4.0,SSW,4.6,-,0.01,Rain,Light Rain,210,2013-08-01 08:57:00
5:24 AM,71.6,71.6,100,29.97,6.0,Calm,Calm,-,0.01,Rain,Light Rain,0,2013-08-01 09:24:00
5:51 AM,72.0,71.1,97,29.96,6.0,Calm,Calm,-,0.01,,Overcast,0,2013-08-01 09:51:00
6:51 AM,72.0,71.1,97,29.97,5.0,SW,3.5,-,N/A,,Overcast,230,2013-08-01 10:51:00
7:24 AM,71.6,71.6,100,29.99,3.0,SW,3.5,-,N/A,,Overcast,230,2013-08-01 11:24:00
7:51 AM,72.0,71.1,97,29.98,3.0,Calm,Calm,-,N/A,,Mostly Cloudy,0,2013-08-01 11:51:00
8:04 AM,71.6,71.6,100,30.00,3.0,WSW,3.5,-,N/A,,Mostly Cloudy,250,2013-08-01 12:04:00
8:14 AM,73.4,71.6,94,30.00,3.0,WSW,4.6,-,N/A,,Overcast,250,2013-08-01 12:14:00
8:25 AM,73.4,71.6,94,30.00,3.0,WSW,4.6,-,N/A,,Mostly Cloudy,240,2013-08-01 12:25:00
8:51 AM,73.0,72.0,96,29.99,4.0,WSW,3.5,-,N/A,,Mostly Cloudy,240,2013-08-01 12:51:00
9:19 AM,75.2,71.6,89,30.00,5.0,Variable,3.5,-,N/A,,Partly Cloudy,0,2013-08-01 13:19:00
9:44 AM,77.0,73.4,89,30.00,5.0,Variable,3.5,-,N/A,,Mostly Cloudy,0,2013-08-01 13:44:00
9:51 AM,77.0,72.0,84,29.98,5.0,Variable,4.6,-,N/A,,Haze,0,2013-08-01 13:51:00
10:17 AM,78.8,71.6,78,30.00,6.0,West,5.8,-,N/A,,Haze,280,2013-08-01 14:17:00
10:25 AM,77.0,71.6,83,30.00,6.0,Variable,3.5,-,N/A,,Haze,0,2013-08-01 14:25:00
10:32 AM,78.8,73.4,83,30.00,6.0,West,6.9,-,N/A,,Haze,280,2013-08-01 14:32:00
10:42 AM,77.0,71.6,83,30.00,7.0,Variable,3.5,-,N/A,,Overcast,0,2013-08-01 14:42:00
10:51 AM,80.1,73.0,79,29.98,7.0,Variable,4.6,-,N/A,,Mostly Cloudy,0,2013-08-01 14:51:00
11:42 AM,80.6,71.6,74,30.00,8.0,NW,8.1,-,N/A,,Mostly Cloudy,310,2013-08-01 15:42:00
11:51 AM,81.0,72.0,74,29.98,8.0,Variable,3.5,-,N/A,,Mostly Cloudy,0,2013-08-01 15:51:00
12:15 PM,80.6,71.6,74,29.99,8.0,West,6.9,-,N/A,,Mostly Cloudy,280,2013-08-01 16:15:00
12:51 PM,82.9,72.0,69,29.96,8.0,West,8.1,-,N/A,,Mostly Cloudy,280,2013-08-01 16:51:00
1:51 PM,82.0,71.1,69,29.95,8.0,WNW,6.9,-,N/A,,Mostly Cloudy,290,2013-08-01 17:51:00
2:51 PM,86.0,72.0,63,29.92,9.0,WNW,4.6,-,N/A,,Partly Cloudy,290,2013-08-01 18:51:00
3:51 PM,87.1,71.1,59,29.91,10.0,West,4.6,-,N/A,,Mostly Cloudy,270,2013-08-01 19:51:00
4:51 PM,84.9,72.0,65,29.91,9.0,WSW,4.6,-,N/A,,Scattered Clouds,250,2013-08-01 20:51:00
5:51 PM,87.1,72.0,61,29.89,9.0,SW,6.9,-,N/A,,Partly Cloudy,230,2013-08-01 21:51:00
6:51 PM,86.0,72.0,63,29.90,9.0,WSW,3.5,-,N/A,,Clear,240,2013-08-01 22:51:00
7:51 PM,82.9,72.0,69,29.91,9.0,Calm,Calm,-,N/A,,Partly Cloudy,0,2013-08-01 23:51:00
8:51 PM,79.0,73.0,82,29.93,9.0,ENE,3.5,-,N/A,,Mostly Cloudy,70,2013-08-02 00:51:00
9:51 PM,75.0,72.0,90,29.94,10.0,Calm,Calm,-,N/A,,Clear,0,2013-08-02 01:51:00
10:51 PM,75.0,71.1,87,29.93,10.0,Calm,Calm,-,N/A,,Partly Cloudy,0,2013-08-02 02:51:00
11:51 PM,73.9,72.0,93,29.95,8.0,East,5.8,-,N/A,,Mostly Cloudy,80,2013-08-02 03:51:00